Location: Newark
(45.0242°N, 16.0939°E)
Time: 15:43:13
(UTC+00:00)

N. Korean satellite - Pass Details

Date: 19 September 2019
Orbit: 455 x 508 km, 97.2° (Epoch: 20 October)

Event Time Altitude Azimuth Distance (km) Brightness Sun altitude
Rises 03:49:52 0° 33° (NNE) 2,484 10.9 -9.3°
Reaches altitude 10° 03:52:59 10° 65° (ENE) 1,600 10.7 -8.8°
Maximum altitude 03:54:28 12° 91° (E) 1,462 10.5 -8.5°
Drops below altitude 10° 03:55:56 10° 116° (ESE) 1,594 10.1 -8.3°
Sets 03:59:00 0° 148° (SSE) 2,463 10.5 -7.8°
